Location: Kershaw
(35.0479°N, 76.7366°W)
Time: 05:37:09
(UTC+00:00)

Daily predictions for brighter satellites

Satellite Brightness Start Highest point End
(mag) Time Altitude Azimuth Time Altitude Azimuth Time Altitude Azimuth
STARLINK-70 4.3 00:03:39 10° WSW 00:06:59 49° WNW 00:06:59 49° WNW
STARLINK-68 4.5 00:05:27 10° WSW 00:08:44 45° WNW 00:08:44 45° WNW
Lacrosse 5 3.2 00:10:22 10° WSW 00:14:52 31° NW 00:15:54 28° NNW
USA 229 DEB 3.8 00:07:36 10° NNW 00:14:53 60° NE 00:15:09 60° ENE
USA 229 3.8 00:07:43 10° NNW 00:14:58 60° NE 00:15:09 60° ENE
Cosmos 2151 Rocket 4.5 00:11:49 10° NNW 00:16:02 47° W 00:20:14 10° SSW
OAO 3 Rocket 4.4 00:12:37 10° W 00:16:52 34° SSW 00:17:12 33° SSW
ATLAS 3B CENTAUR R/B 4.5 00:34:46 10° SSW 00:42:31 40° SE 00:43:20 39° SE
CZ-3B R/B 3.0 00:38:13 10° WSW 00:41:44 36° SSW 00:41:44 36° SSW
CZ-4C R/B 4.0 00:46:10 10° W 00:50:06 22° NW 00:50:18 22° NW
Cosmos 2369 Rocket 3.8 00:55:09 10° NW 01:00:02 31° WSW 01:01:44 26° SW
CZ-4C R/B 4.5 08:20:41 30° SE 08:20:41 30° SE 08:24:38 10° SE
Cosmos 1943 3.2 09:39:36 75° ENE 09:39:36 75° ENE 09:45:10 10° SSE
Hubble Space Telescope 3.1 09:50:11 16° S 09:50:40 16° SSE 09:53:18 10° ESE
Meteor 1-18 Rocket 4.4 09:53:30 24° N 09:56:57 69° E 10:02:33 10° SSE
Cosmos 2026 Rocket 4.0 09:54:40 10° N 10:00:53 79° E 10:07:13 10° S
CZ-4C R/B 4.0 10:05:56 27° SW 10:05:56 27° SW 10:11:31 10° SSW
COBE Rocket 4.0 10:00:44 10° S 10:04:50 57° SW 10:04:50 57° SW
Cosmos 1741 Rocket 4.2 10:03:19 33° N 10:05:38 71° ENE 10:10:51 10° SSE
Cosmos 1603 4.1 10:07:29 42° SW 10:07:29 42° SW 10:12:03 10° S
Cosmos 2279 Rocket 4.1 10:01:34 10° S 10:07:43 74° E 10:13:55 10° N
FALCON 9 R/B 3.3 10:04:52 43° W 10:07:46 87° S 10:32:05 10° E
USA 234 3.3 10:03:20 10° NE 10:09:41 56° NW 10:11:38 42° W
STARLINK 1055 4.5 10:11:21 35° S 10:11:21 35° S 10:13:45 10° SSE
STARLINK 1022 4.4 10:14:58 35° S 10:14:58 35° S 10:17:28 10° SSE
STARLINK 1042 4.4 10:18:09 34° SSW 10:18:09 34° SSW 10:20:43 10° SSE
STARLINK 1056 4.3 10:21:38 33° SSW 10:21:38 33° SSW 10:24:17 10° SSE
Cosmos 1850 Rocket 3.9 10:19:54 31° NNW 10:22:32 76° WSW 10:27:49 10° S
Cosmos 1634 Rocket 4.1 10:16:36 10° SSW 10:22:32 48° W 10:28:30 10° N
STARLINK 1054 4.4 10:25:07 32° SSW 10:25:07 32° SSW 10:27:50 10° SSE
Helios 1A Rocket 4.2 10:20:46 10° NNE 10:24:35 40° E 10:28:22 10° S
Cosmos 2263 Rocket 4.3 10:29:24 10° NNW 10:29:24 10° NNW 10:29:26 10° NNW
STARLINK 1062 4.4 10:28:30 31° SSW 10:28:30 31° SSW 10:31:17 10° SSE
Meteor 2-4 Rocket 4.1 10:25:11 10° N 10:30:33 62° E 10:35:49 10° SSE
COSMO-SKYMED 1 2.5 10:26:32 10° SSE 10:30:52 90° W 10:34:25 15° NNW
STARLINK 1053 4.5 10:32:08 29° SW 10:32:08 29° SW 10:34:58 10° S
Cosmos 1733 Rocket 2.9 10:36:09 10° S 10:40:26 85° W 10:44:48 10° N
PSLV R/B 2.9 10:42:23 51° S 10:42:23 51° S 10:44:28 10° SE
NOAA 6 4.1 10:37:46 10° NNE 10:42:54 78° ESE 10:48:03 10° S
MOS 1-B 4.3 10:38:15 10° N 10:43:55 61° WNW 10:49:34 10° SSW
FENGYUN 3A 3.5 10:40:09 10° N 10:45:31 72° WNW 10:50:51 10° SSW
Meteor 1-19 Rocket 4.3 10:40:05 10° NNW 10:45:33 57° W 10:51:09 10° S
METEOR-M 4.0 10:42:07 10° N 10:47:26 67° WNW 10:52:43 10° SSW
Meteor 2-13 Rocket 4.4 10:42:27 10° N 10:48:38 87° W 10:54:48 10° S
Cosmos 332 Rocket 4.0 10:43:58 10° SW 10:48:41 47° WNW 10:53:24 10° N
BREEZE-M DEB (TANK) 2.4 10:47:57 39° WSW 10:48:42 76° NW 10:52:02 10° NE
Cosmos 1331 Rocket 4.3 10:46:33 10° SW 10:51:23 41° WNW 10:56:18 10° N
GPS 2-04 Rocket1 2.5 10:49:35 28° W 10:51:32 89° N 10:55:34 10° E
Okean 1 4.4 10:52:06 24° W 10:52:06 24° W 10:54:57 10° SW
NOSS 3-2 (A) 3.3 10:48:51 10° SW 10:54:23 59° NW 11:00:35 10° NNE
CZ-4B DEB 4.3 10:49:16 10° N 10:54:39 54° WNW 11:00:01 10° SSW
Cosmos 2221 Rocket 3.9 10:51:58 13° NNW 10:55:40 44° W 10:59:52 10° SSW
Cosmos 1844 Rocket 2.8 10:50:34 10° SW 10:55:58 50° WNW 11:01:23 10° N
Cosmos 1655 Rocket 3.9 10:52:55 10° N 10:59:06 75° W 11:05:19 10° S
SMAP 4.5 10:55:13 10° NNE 10:59:38 41° E 11:04:00 10° S
Geosat 4.0 10:57:53 10° SSE 11:02:54 88° WSW 11:07:57 10° NNW
CENTAUR R/B 2.6 10:59:10 10° SSW 11:04:49 75° ESE 11:11:24 10° NE
Okean O Rocket 1.7 11:02:08 10° N 11:06:26 52° WNW 11:10:44 10° SSW
Cosmos 1844 3.9 11:01:06 10° SW 11:06:45 53° WNW 11:12:24 10° NNE
USA 238 DEB 3.9 11:00:41 10° SW 11:07:01 46° NW 11:13:34 10° NNE
USA 238 3.9 11:00:47 10° SW 11:07:07 46° NW 11:13:40 10° NNE
Cosmos 371 Rocket 4.3 11:04:29 10° WSW 11:08:21 23° WNW 11:12:15 10° N
H-2A R/B 3.6 11:06:38 10° NNE 11:10:21 54° E 11:14:06 10° S
SJ-7 4.3 11:08:21 10° N 11:12:18 63° WNW 11:16:13 10° SSW
ALOS 2.9 11:08:10 10° N 11:12:18 32° WNW 11:16:24 10° SW
ATLAS CENTAUR R/B 3.0 11:08:54 10° N 11:12:29 29° NE 11:15:50 10° ESE
CZ-4B R/B 3.4 11:09:39 10° N 11:15:09 55° WNW 11:20:40 10° SSW
Cosmos 1674 Rocket 3.4 11:11:44 10° N 11:16:03 73° W 11:20:19 10° S
Cosmos 1536 2.9 11:12:59 10° SSW 11:16:57 54° W 11:20:56 10° N
ADEOS Rocket 4.0 11:11:41 10° SSE 11:18:24 54° ENE 11:24:27 10° N
Cosmos 1500 4.1 11:16:02 10° SW 11:19:18 27° WNW 11:22:35 10° NNW
BREEZE-M DEB (TANK) 2.0 11:24:01 11° NW 11:25:58 62° NE 11:30:32 10° ESE
Cosmos 2266 Rocket 4.0 11:24:58 10° NNW 11:31:02 61° W 11:36:57 10° S
Hubble Space Telescope 2.4 11:27:43 10° SW 11:31:21 30° S 11:35:00 10° ESE
IRIDIUM 104 4.3 11:26:09 10° N 11:31:22 81° W 11:36:34 10° S
Cosmos 1378 Rocket 3.6 11:27:47 10° NNW 11:32:12 68° W 11:36:36 10° S
Okean-O 3.8 11:29:06 10° NNE 11:33:24 49° E 11:37:40 10° S
Cosmos 1486 Rocket 4.3 11:29:17 10° NNW 11:34:34 76° ENE 11:39:47 10° SSE
CORIOLIS 4.4 11:30:14 10° NNE 11:35:38 77° ESE 11:40:59 10° S
Radarsat Rocket 4.5 11:33:30 10° N 11:39:54 57° WNW 11:47:08 10° SSW
Sich 1 Rocket 4.1 11:35:58 10° S 11:40:26 66° E 11:44:53 10° NNE
IRIDIUM 114 4.4 11:35:20 10° N 11:40:30 65° W 11:45:38 10° S
